• în România
  • Lista ţărilor
  • Pe 7 zile
  • Temperatura apei
  • Hartă satelitară
  • Meteo pe hartă
  • Widget-uri
  • user-avatar
    Intrare

    Meteo pe oră la Ondjiwa

    Astăzi, 23 Mai, Marţi

    Timp Temperatura Precipitaţii Vânt Presiune Umiditate
    00:00 +17°C° 0 mm 3 m/s 668 mmHg 37%
    01:00 +16°C° 0 mm 3 m/s 668 mmHg 40%
    02:00 +16°C° 0 mm 3 m/s 668 mmHg 40%
    03:00 +14°C° 0 mm 3 m/s 668 mmHg 41%
    04:00 +14°C° 0 mm 3 m/s 668 mmHg 41%
    05:00 +14°C° 0 mm 3 m/s 668 mmHg 42%
    06:00 +13°C° 0 mm 3 m/s 669 mmHg 44%
    07:00 +13°C° 0 mm 3 m/s 669 mmHg 45%
    08:00 +18°C° 0 mm 3 m/s 670 mmHg 39%
    09:00 +21°C° 0 mm 4 m/s 670 mmHg 33%
    10:00 +26°C° 0 mm 5 m/s 671 mmHg 27%
    11:00 +27°C° 0 mm 4 m/s 671 mmHg 25%
    12:00 +29°C° 0 mm 3 m/s 670 mmHg 22%
    13:00 +30°C° 0 mm 2 m/s 670 mmHg 19%
    14:00 +30°C° 0 mm 2 m/s 670 mmHg 19%
    15:00 +30°C° 0 mm 1 m/s 669 mmHg 19%
    16:00 +30°C° 0 mm 1 m/s 669 mmHg 19%
    17:00 +27°C° 0 mm 1 m/s 668 mmHg 23%
    18:00 +24°C° 0 mm 2 m/s 668 mmHg 28%
    19:00 +20°C° 0 mm 2 m/s 667 mmHg 32%
    20:00 +20°C° 0 mm 2 m/s 667 mmHg 33%
    21:00 +19°C° 0 mm 2 m/s 668 mmHg 34%
    22:00 +19°C° 0 mm 2 m/s 668 mmHg 35%
    23:00 +18°C° 0 mm 2 m/s 668 mmHg 36%

    Mâine, 24 Mai, Miercuri

    Timp Temperatura Precipitaţii Vânt Presiune Umiditate
    00:00 +18°C° 0 mm 3 m/s 668 mmHg 37%
    01:00 +18°C° 0 mm 3 m/s 668 mmHg 37%
    02:00 +18°C° 0 mm 2 m/s 668 mmHg 38%
    03:00 +18°C° 0 mm 2 m/s 668 mmHg 39%
    04:00 +18°C° 0 mm 2 m/s 668 mmHg 39%
    05:00 +18°C° 0 mm 2 m/s 668 mmHg 40%
    06:00 +18°C° 0 mm 2 m/s 668 mmHg 41%
    07:00 +18°C° 0 mm 2 m/s 669 mmHg 42%
    08:00 +21°C° 0 mm 3 m/s 669 mmHg 38%
    09:00 +25°C° 0 mm 4 m/s 670 mmHg 35%
    10:00 +28°C° 0 mm 5 m/s 671 mmHg 31%
    11:00 +30°C° 0 mm 4 m/s 670 mmHg 27%
    12:00 +32°C° 0 mm 4 m/s 670 mmHg 24%
    13:00 +33°C° 0 mm 4 m/s 670 mmHg 20%
    14:00 +31°C° 0 mm 3 m/s 669 mmHg 23%
    15:00 +30°C° 0 mm 3 m/s 668 mmHg 25%
    16:00 +29°C° 0 mm 3 m/s 668 mmHg 28%
    17:00 +27°C° 0 mm 3 m/s 668 mmHg 31%
    18:00 +25°C° 0 mm 3 m/s 668 mmHg 35%
    19:00 +24°C° 0 mm 3 m/s 668 mmHg 38%
    20:00 +22°C° 0 mm 3 m/s 668 mmHg 39%
    21:00 +21°C° 0 mm 3 m/s 668 mmHg 41%
    22:00 +20°C° 0 mm 3 m/s 668 mmHg 42%
    23:00 +19°C° 0 mm 3 m/s 668 mmHg 44%

    Poimâine, 25 Mai, Joi

    Timp Temperatura Precipitaţii Vânt Presiune Umiditate
    00:00 +19°C° 0 mm 2 m/s 667 mmHg 45%
    01:00 +18°C° 0 mm 2 m/s 667 mmHg 46%
    02:00 +17°C° 0 mm 2 m/s 667 mmHg 48%
    03:00 +17°C° 0 mm 2 m/s 667 mmHg 49%
    04:00 +18°C° 0 mm 1 m/s 667 mmHg 51%
    05:00 +18°C° 0 mm 1 m/s 667 mmHg 50%
    06:00 +18°C° 0 mm 1 m/s 668 mmHg 50%
    07:00 +18°C° 0 mm 2 m/s 668 mmHg 49%
    08:00 +21°C° 0 mm 2 m/s 669 mmHg 44%
    09:00 +24°C° 0 mm 2 m/s 670 mmHg 38%
    10:00 +27°C° 0 mm 3 m/s 671 mmHg 32%
    11:00 +29°C° 0 mm 3 m/s 670 mmHg 29%
    12:00 +30°C° 0 mm 3 m/s 670 mmHg 26%
    13:00 +33°C° 0 mm 3 m/s 669 mmHg 23%
    14:00 +31°C° 0 mm 2 m/s 669 mmHg 24%
    15:00 +31°C° 0 mm 2 m/s 668 mmHg 25%
    16:00 +30°C° 0 mm 2 m/s 668 mmHg 25%
    17:00 +28°C° 0 mm 2 m/s 668 mmHg 29%
    18:00 +26°C° 0 mm 2 m/s 667 mmHg 33%
    19:00 +24°C° 0 mm 2 m/s 667 mmHg 37%
    20:00 +23°C° 0 mm 2 m/s 667 mmHg 39%
    21:00 +21°C° 0 mm 3 m/s 668 mmHg 40%
    22:00 +21°C° 0 mm 3 m/s 668 mmHg 41%
    23:00 +21°C° 0 mm 3 m/s 668 mmHg 41%

    26 Mai, Vineri

    Timp Temperatura Precipitaţii Vânt Presiune Umiditate
    00:00 +21°C° 0 mm 2 m/s 668 mmHg 41%
    01:00 +21°C° 0 mm 2 m/s 668 mmHg 41%
    02:00 +21°C° 0 mm 2 m/s 668 mmHg 42%
    03:00 +22°C° 0 mm 1 m/s 668 mmHg 43%
    04:00 +22°C° 0 mm 1 m/s 667 mmHg 44%
    05:00 +22°C° 0 mm 1 m/s 668 mmHg 44%
    06:00 +22°C° 0 mm 1 m/s 668 mmHg 45%
    07:00 +22°C° 0 mm 1 m/s 669 mmHg 45%
    08:00 +24°C° 0 mm 2 m/s 669 mmHg 40%
    09:00 +26°C° 0 mm 3 m/s 670 mmHg 34%
    10:00 +29°C° 0 mm 3 m/s 671 mmHg 29%
    11:00 +30°C° 0 mm 3 m/s 670 mmHg 26%
    12:00 +31°C° 0 mm 3 m/s 670 mmHg 24%
    13:00 +34°C° 0 mm 2 m/s 669 mmHg 21%
    14:00 +32°C° 0 mm 2 m/s 669 mmHg 23%
    15:00 +30°C° 0 mm 2 m/s 668 mmHg 26%
    16:00 +29°C° 0 mm 2 m/s 667 mmHg 28%
    17:00 +28°C° 0 mm 2 m/s 668 mmHg 31%
    18:00 +26°C° 0 mm 3 m/s 668 mmHg 35%
    19:00 +25°C° 0 mm 3 m/s 668 mmHg 38%
    20:00 +24°C° 0 mm 3 m/s 668 mmHg 41%
    21:00 +22°C° 0 mm 3 m/s 668 mmHg 43%
    22:00 +21°C° 0 mm 3 m/s 668 mmHg 46%
    23:00 +20°C° 0 mm 3 m/s 668 mmHg 47%

    27 Mai, Sâmbătă

    Timp Temperatura Precipitaţii Vânt Presiune Umiditate
    00:00 +20°C° 0 mm 2 m/s 668 mmHg 49%
    01:00 +19°C° 0 mm 2 m/s 668 mmHg 50%
    02:00 +19°C° 0 mm 2 m/s 668 mmHg 50%
    03:00 +20°C° 0 mm 1 m/s 668 mmHg 50%
    04:00 +20°C° 0 mm 1 m/s 668 mmHg 49%
    05:00 +21°C° 0 mm 1 m/s 668 mmHg 49%
    06:00 +21°C° 0 mm 1 m/s 669 mmHg 49%
    07:00 +21°C° 0 mm 1 m/s 669 mmHg 48%
    08:00 +24°C° 0 mm 1 m/s 670 mmHg 41%
    09:00 +27°C° 0 mm 1 m/s 671 mmHg 35%
    10:00 +29°C° 0 mm 1 m/s 672 mmHg 28%
    11:00 +31°C° 0 mm 1 m/s 671 mmHg 24%
    12:00 +32°C° 0 mm 1 m/s 671 mmHg 21%
    13:00 +34°C° 0 mm 1 m/s 670 mmHg 18%
    14:00 +33°C° 0 mm 1 m/s 670 mmHg 18%
    15:00 +33°C° 0 mm 1 m/s 669 mmHg 18%
    16:00 +33°C° 0 mm 1 m/s 669 mmHg 18%
    17:00 +30°C° 0 mm 1 m/s 669 mmHg 22%
    18:00 +27°C° 0 mm 1 m/s 669 mmHg 26%
    19:00 +24°C° 0 mm 2 m/s 668 mmHg 30%
    20:00 +23°C° 0 mm 2 m/s 669 mmHg 32%
    21:00 +23°C° 0 mm 2 m/s 669 mmHg 33%
    22:00 +21°C° 0 mm 2 m/s 669 mmHg 35%
    23:00 +21°C° 0 mm 1 m/s 669 mmHg 38%

    28 Mai, Duminică

    Timp Temperatura Precipitaţii Vânt Presiune Umiditate
    00:00 +20°C° 0 mm 1 m/s 668 mmHg 41%
    01:00 +19°C° 0 mm 1 m/s 668 mmHg 44%
    02:00 +19°C° 0 mm 1 m/s 668 mmHg 45%
    03:00 +19°C° 0 mm 1 m/s 668 mmHg 46%
    04:00 +18°C° 0 mm 1 m/s 668 mmHg 47%
    05:00 +19°C° 0 mm 1 m/s 669 mmHg 47%
    06:00 +18°C° 0 mm 2 m/s 669 mmHg 48%
    07:00 +18°C° 0 mm 2 m/s 670 mmHg 48%
    08:00 +23°C° 0 mm 2 m/s 671 mmHg 41%
    09:00 +26°C° 0 mm 2 m/s 671 mmHg 35%
    10:00 +29°C° 0 mm 2 m/s 672 mmHg 28%
    11:00 +31°C° 0 mm 2 m/s 672 mmHg 25%
    12:00 +33°C° 0 mm 3 m/s 671 mmHg 21%
    13:00 +34°C° 0 mm 3 m/s 670 mmHg 18%
    14:00 +34°C° 0 mm 2 m/s 670 mmHg 18%
    15:00 +34°C° 0 mm 2 m/s 670 mmHg 17%
    16:00 +34°C° 0 mm 2 m/s 670 mmHg 17%
    17:00 +29°C° 0 mm 2 m/s 669 mmHg 21%
    18:00 +26°C° 0 mm 2 m/s 669 mmHg 25%
    19:00 +23°C° 0 mm 2 m/s 669 mmHg 29%
    20:00 +23°C° 0 mm 2 m/s 669 mmHg 30%
    21:00 +21°C° 0 mm 2 m/s 669 mmHg 31%
    22:00 +20°C° 0 mm 3 m/s 670 mmHg 31%
    23:00 +20°C° 0 mm 3 m/s 669 mmHg 33%
    Arată mai mult